Home   Weather   Fellbach   Past weeks

Flag for Germany Past Weather in Fellbach, Baden-Württemberg, Germany — Yesterday and Last 2 Weeks

46 °F

Scattered clouds.

Feels Like: 42 °F
Forecast: 34 / 56 °F
Wind: 8 mph from Southwest

Location: Stuttgart-Echterdingen

Current Time: Oct 22, 2016 at 10:57:19 AM

Latest Report: Oct 22, 2016 at 10:20 AM

Visibility: N/A

Pressure: 29.95 "Hg

Humidity: 76%

Dew Point: 39 °F

Location of FellbachLocation

Past Weather in Fellbach — Graph


Fellbach Temperature Yesterday

Maximum temperature yesterday: 50 °F (at 2:50 PM)
Minimum temperature yesterday: 41 °F (at 5:20 AM)
Average temperature yesterday: 44 °F

High & Low Weather Summary for the Past Weeks

High68 °F (Oct 16, 3:50 PM)100% (Oct 9, 2:20 AM)30.24 "Hg (Oct 9, 2:20 AM)
Low36 °F (Oct 10, 3:50 AM)47% (Oct 12, 3:50 PM)29.65 "Hg (Oct 14, 5:50 PM)
Average47 °F84%30.05 "Hg
* Reported Oct 7 9:20 AM — Oct 22 9:50 AM, Fellbach, Weather by CustomWeather, © 2016

Note: Actual official high and low records may vary slightly from our data, if they occured in-between our weather recording intervals... More about our weather records


Fellbach Weather History for the Previous 24 Hours

Scroll right to see more
Time TempWeatherWind HumidityBarometerVisibility
9:50 AM
Sat, Oct 22
46 °FScattered clouds.8 mph76%29.95 "HgN/A
9:20 AM45 °FScattered clouds.6 mph81%29.95 "HgN/A
8:50 AM43 °FScattered clouds.6 mph87%29.95 "HgN/A
8:20 AM39 °FScattered clouds.5 mph93%29.95 "HgN/A
7:50 AM41 °FPassing clouds.6 mph87%29.95 "HgN/A
7:20 AM41 °FClear.5 mph87%29.95 "Hg10 mi
6:50 AM43 °FPassing clouds.3 mph87%29.95 "HgN/A
6:20 AM43 °FPassing clouds.3 mph87%29.95 "HgN/A
5:50 AM43 °FPassing clouds.6 mph87%29.95 "HgN/A
5:20 AM43 °FPassing clouds.6 mph87%29.95 "HgN/A
4:50 AM43 °FPassing clouds.6 mph87%29.95 "HgN/A
4:20 AM43 °FPassing clouds.6 mph87%29.95 "HgN/A
3:50 AM43 °FPassing clouds.3 mph87%29.95 "HgN/A
3:20 AM41 °FPassing clouds.2 mph93%29.98 "HgN/A
2:20 AM39 °FPartly cloudy.5 mph87%29.98 "HgN/A
1:50 AM37 °FPartly cloudy.2 mph93%29.98 "HgN/A
1:20 AM39 °FPartly cloudy.1 mph93%29.98 "HgN/A
12:50 AM41 °FPartly cloudy.1 mph87%29.98 "HgN/A
12:20 AM43 °FPassing clouds.3 mph87%29.98 "HgN/A
11:50 PM
Fri, Oct 21
43 °FPartly cloudy.3 mph87%29.98 "HgN/A
11:20 PM43 °FPartly cloudy.3 mph87%30.01 "HgN/A
10:50 PM45 °FPassing clouds.5 mph81%30.01 "HgN/A
10:20 PM45 °FPassing clouds.2 mph81%30.01 "HgN/A
9:50 PM45 °FPassing clouds.1 mph87%30.01 "HgN/A
9:20 PM45 °FPartly cloudy.2 mph87%30.01 "HgN/A
8:50 PM45 °FPassing clouds.1 mph87%30.01 "HgN/A
8:20 PM45 °FClear.No wind87%30.01 "Hg10 mi
7:50 PM45 °FClear.2 mph87%29.98 "Hg10 mi
7:20 PM45 °FPassing clouds.2 mph87%29.98 "HgN/A
6:50 PM45 °FPassing clouds.1 mph87%29.98 "HgN/A
6:20 PM45 °FPartly sunny.2 mph87%29.98 "HgN/A
5:50 PM46 °FPartly sunny.5 mph76%29.98 "HgN/A
5:20 PM46 °FScattered showers. Partly sunny.3 mph76%29.98 "HgN/A
4:50 PM46 °FSprinkles. Broken clouds.7 mph76%29.98 "HgN/A
4:20 PM48 °FPartly sunny.3 mph71%29.98 "HgN/A
3:50 PM48 °FPartly sunny.5 mph71%29.98 "HgN/A
3:20 PM48 °FPartly sunny.5 mph71%29.98 "HgN/A
2:50 PM50 °FScattered clouds.5 mph67%29.98 "HgN/A
2:20 PM48 °FScattered clouds.5 mph76%29.98 "HgN/A
1:50 PM46 °FPartly sunny.3 mph76%29.98 "HgN/A
1:20 PM46 °FBroken clouds.3 mph76%29.98 "HgN/A
12:50 PM46 °FPartly sunny.5 mph76%29.98 "HgN/A
12:20 PM46 °FPartly sunny.3 mph76%29.98 "HgN/A
11:50 AM45 °FBroken clouds.5 mph81%29.98 "HgN/A
11:20 AM45 °FBroken clouds.3 mph81%29.98 "HgN/A
10:50 AM45 °FBroken clouds.6 mph81%29.98 "HgN/A
10:20 AM43 °FBroken clouds.5 mph93%29.95 "HgN/A
Weather by CustomWeather, © 2016

See weather overviewHow to use our weather pages